KE9LZ Weather Reports


time (UTC)temp
C
wind
direction
speed
KPH
gust
KPH
rain 1hr
cm
rain 24hr
cm
rain mn
cm
humidity
%
barometer
mb
20260506141002 7 111 9.7 12.9 0.00 0.00 0.00 62 1019.2
20260506135002 6 78 4.8 14.5 0.00 0.00 0.00 64 1019.1
20260506134002 6 84 6.4 11.3 0.00 0.00 0.00 69 1019.0
20260506133002 5 148 4.8 11.3 0.00 0.00 0.00 73 1018.9
20260506132003 5 63 4.8 8.0 0.00 0.00 0.00 74 1019.0
20260506131002 5 85 6.4 12.9 0.00 0.00 0.00 75 1018.9
20260506130003 4 40 8.0 11.3 0.00 0.00 0.00 75 1018.9
20260506125002 3 57 8.0 9.7 0.00 0.00 0.00 79 1018.8
20260506124003 3 9 4.8 9.7 0.00 0.00 0.00 80 1018.6
20260506123003 3 92 6.4 9.7 0.00 0.00 0.00 82 1018.4
20260506122003 3 73 4.8 8.0 0.00 0.00 0.00 83 1018.3
20260506121003 2 82 3.2 8.0 0.00 0.00 0.00 85 1018.2
20260506115003 2 80 3.2 11.3 0.00 0.00 0.00 88 1018.4
20260506113002 1 53 4.8 8.0 0.00 0.00 0.00 91 1018.1
20260506112003 1 278 3.2 9.7 0.00 0.00 0.00 92 1018.0
20260506111003 0 239 3.2 8.0 0.00 0.00 0.00 93 1017.6
20260506110002 0 17 3.2 9.7 0.00 0.00 0.00 93 1017.5
20260506104003 0 94 3.2 4.8 0.00 0.00 0.00 94 1017.4
20260506103003 0 96 3.2 4.8 0.00 0.00 0.00 93 1017.3
20260506102002 0 99 3.2 4.8 0.00 0.00 0.00 93 1017.3
20260506101003 0 139 3.2 3.2 0.00 0.00 0.00 93 1017.3
20260506095003 0 104 3.2 3.2 0.00 0.00 0.00 91 1017.3
20260506094002 0 76 1.6 3.2 0.00 0.00 0.00 91 1017.1
20260506093002 1 62 1.6 3.2 0.00 0.00 0.00 90 1017.2
20260506092003 1 80 3.2 4.8 0.00 0.00 0.00 90 1017.3
20260506091003 1 77 3.2 4.8 0.00 0.00 0.00 90 1017.3
20260506090003 1 78 3.2 4.8 0.00 0.00 0.00 89 1017.4
20260506085002 1 85 3.2 4.8 0.00 0.00 0.00 88 1017.4
20260506084002 1 81 3.2 8.0 0.00 0.00 0.00 87 1017.1
20260506083003 2 87 4.8 8.0 0.00 0.00 0.00 86 1017.1
20260506082003 2 80 8.0 8.0 0.00 0.00 0.00 86 1017.0
20260506081003 2 91 4.8 8.0 0.00 0.00 0.00 85 1016.8
20260506073002 2 34 1.6 4.8 0.00 0.00 0.00 82 1016.8
20260506072003 2 58 3.2 8.0 0.00 0.00 0.00 81 1016.5
20260506071003 2 96 8.0 9.7 0.00 0.00 0.00 80 1016.2
20260506062003 2 77 8.0 11.3 0.00 0.00 0.00 74 1016.3
20260506061002 2 98 1.6 3.2 0.00 0.00 0.00 73 1016.2
20260506051002 3 116 3.2 4.8 0.00 0.00 0.00 68 1016.1
20260506045003 3 125 3.2 4.8 0.00 0.00 0.00 62 1016.1
20260506043003 3 120 3.2 3.2 0.00 0.00 0.00 62 1016.0
20260506042002 4 109 1.6 3.2 0.00 0.00 0.00 59 1015.9
20260506041003 5 94 3.2 3.2 0.00 0.00 0.00 58 1016.0
20260506040003 5 83 3.2 3.2 0.00 0.00 0.00 56 1015.8
20260506035003 6 118 1.6 4.8 0.00 0.00 0.00 54 1016.1
20260506034002 6 74 3.2 4.8 0.00 0.00 0.00 52 1016.1
20260506033003 6 54 1.6 4.8 0.00 0.00 0.00 51 1015.9
20260506032003 6 59 1.6 4.8 0.00 0.00 0.00 51 1015.8
20260506031003 6 320 3.2 3.2 0.00 0.00 0.00 50 1015.8
20260506030002 6 248 1.6 8.0 0.00 0.00 0.00 49 1015.7
20260506025002 6 296 3.2 4.8 0.00 0.00 0.00 49 1015.6
20260506024003 7 40 3.2 4.8 0.00 0.00 0.00 48 1015.6
20260506023003 7 43 3.2 11.3 0.00 0.00 0.00 47 1015.5
20260506022003 7 295 4.8 12.9 0.00 0.00 0.00 46 1015.3
20260506021003 7 314 4.8 12.9 0.00 0.00 0.00 47 1015.2
20260506020003 7 310 8.0 16.1 0.00 0.00 0.00 44 1015.2
20260506015003 7 334 6.4 16.1 0.00 0.00 0.00 45 1015.0
20260506014003 8 3 9.7 22.5 0.00 0.00 0.00 45 1014.9
20260506013003 7 295 6.4 19.3 0.00 0.00 0.00 44 1014.7
20260506011002 8 341 9.7 27.4 0.00 0.00 0.00 42 1014.4
20260506010002 8 316 4.8 32.2 0.00 0.00 0.00 42 1014.6
20260506005003 8 321 9.7 27.4 0.00 0.00 0.00 41 1014.4
20260506004003 8 297 12.9 40.2 0.00 0.00 0.00 40 1014.5
20260506003004 8 294 20.9 38.6 0.00 0.00 0.00 39 1014.3
20260506002003 9 301 14.5 35.4 0.00 0.00 0.00 39 1014.2
20260506001002 9 319 9.7 46.7 0.00 0.00 0.00 39 1014.3
20260506000002 10 305 19.3 46.7 0.00 0.00 0.00 38 1014.1
20260505235003 10 303 11.3 37.0 0.00 0.00 0.00 38 1014.1
20260505234003 10 320 19.3 37.0 0.00 0.00 0.00 38 1014.2
20260505233003 10 319 17.7 45.1 0.00 0.00 0.00 37 1014.2
20260505232003 10 299 22.5 32.2 0.00 0.00 0.00 37 1014.3
20260505230002 10 289 22.5 48.3 0.00 0.00 0.00 37 1014.1
20260505225003 11 273 22.5 41.8 0.00 0.00 0.00 36 1013.7
20260505224003 10 286 14.5 45.1 0.00 0.00 0.00 36 1013.7
20260505223003 11 303 22.5 45.1 0.00 0.00 0.00 36 1013.7
20260505221003 11 319 22.5 45.1 0.00 0.00 0.00 36 1013.5
20260505220003 11 292 30.6 45.1 0.00 0.00 0.00 36 1013.5
20260505215003 11 275 17.7 40.2 0.00 0.00 0.00 34 1013.5
20260505214003 11 299 25.7 46.7 0.00 0.00 0.00 34 1013.7
20260505213002 11 300 20.9 37.0 0.00 0.00 0.00 37 1013.4
20260505212004 11 299 17.7 41.8 0.00 0.00 0.00 37 1013.3
20260505211003 10 280 16.1 40.2 0.00 0.00 0.00 36 1013.3
20260505210003 12 274 16.1 38.6 0.00 0.00 0.00 36 1013.1
20260505205003 11 278 16.1 46.7 0.00 0.00 0.00 36 1013.0
20260505204002 11 297 20.9 40.2 0.00 0.00 0.00 38 1013.3
20260505203003 11 247 16.1 37.0 0.00 0.00 0.00 37 1013.1
20260505202004 12 240 11.3 38.6 0.00 0.00 0.00 34 1013.3
20260505200003 11 259 12.9 37.0 0.00 0.00 0.00 37 1013.2
20260505195003 11 286 17.7 48.3 0.00 0.00 0.00 37 1013.3
20260505194003 11 297 24.1 48.3 0.00 0.00 0.00 39 1013.0
20260505193003 11 275 12.9 37.0 0.00 0.00 0.00 38 1012.8
20260505192003 11 290 16.1 45.1 0.00 0.00 0.00 38 1012.8
20260505191002 11 281 17.7 35.4 0.00 0.00 0.00 37 1012.7
20260505190003 12 257 8.0 37.0 0.00 0.00 0.00 37 1012.6
20260505185003 12 287 14.5 33.8 0.00 0.00 0.00 36 1012.8
20260505184002 11 279 24.1 35.4 0.00 0.00 0.00 36 1012.7
20260505183004 12 282 19.3 48.3 0.00 0.00 0.00 34 1012.3
20260505182003 11 299 20.9 41.8 0.00 0.00 0.00 36 1012.5
20260505180003 12 234 12.9 25.7 0.00 0.00 0.00 34 1012.3
20260505175003 11 232 14.5 38.6 0.00 0.00 0.00 34 1012.4
20260505174003 11 264 16.1 33.8 0.00 0.00 0.00 36 1012.3
20260505172003 11 262 14.5 35.4 0.00 0.00 0.00 40 1012.4
20260505171003 10 290 19.3 33.8 0.00 0.00 0.00 38 1012.1
20260505170003 10 223 8.0 24.1 0.00 0.00 0.00 43 1012.0
20260505165002 10 269 14.5 37.0 0.00 0.00 0.00 44 1011.9
20260505164003 10 286 11.3 32.2 0.00 0.00 0.00 43 1011.9
20260505163003 10 242 9.7 37.0 0.00 0.00 0.00 44 1012.0
20260505162002 10 220 9.7 40.2 0.00 0.00 0.00 44 1012.0
20260505161003 10 292 16.1 33.8 0.00 0.00 0.00 45 1011.8
20260505153003 9 284 14.5 32.2 0.00 0.00 0.00 46 1011.8
20260505152002 10 266 14.5 33.8 0.00 0.00 0.00 46 1012.0
20260505151003 9 318 9.7 37.0 0.00 0.00 0.00 46 1012.1